SCP
0 0 0 0 0 0 0 0 0 0 0 0 0 0 0 0 0 0 0 0 0 0 0 0 0 0 0 0 0 0 0 0 0 0 0 0 0 0 0 0 0 0 0
0 0 0 0 0 0 0 0 0 0 0 0 0 0 0 0 0 0 0 0 0 0 0 0 0 0 0 0 0 0 0 0 0 0 0 0 0 0 0 0 0 0 0
0 0 0 0 0 0 0 0 0 0 0 0 0 0 0 0 0 0 0 0 0 0 0 0 0 0 0 0 0 0 0 0 0 0 0 0 0 0 0 0 0 0 0
0 0 0 0 0 0 0 0 0 0 0 0 0 0 0 0 0 0 0 0 0 0 0 0 0 0 0 0 0 0 0 0 0 0 0 0 0 0 0 0 0 0 0
0 0 0 0 0 0 0 0 0 0 0 0 0 0 0 0 0 0 0 0 0 0 0 0 0 0 0 0 0 0 0 0 0 0 0 0 0 0 0 0 0 0 0
0 0 0 0 0 0 0 0 0 0 0 0 0 0 0 0 0 0 0 0 0 0 0 0 0 0 0 0 0 0 0 0 0 0 0 0 0 0 0 0 0 0 0
0 0 0 0 0 0 0 0 0 0 0 0 0 0 0 0 0 0 0 0 0 0 0 0 0 0 0 0 0 0 0 0 0 0 0 0 0 0 0 0 0 0 0
0 0 0 0 0 0 0 0 0 0 0 0 0 0 0 0 0 0 0 0 0 0 0 0 0 0 0 0 0 0 0 0 0 0 0 0 0 0 0 0 0 0 0
0 0 0 0 0 0 0 0 0 0 0 0 0 0 0 0 0 0 0 0 0 0 0 0 0 0 0 0 0 0 0 0 0 0 0 0 0 0 0 0 0 0 0
0 0 0 0 0 0 0 0 0 0 0 0 0 0 0 0 0 0 0 0 0 0 0 0 0 0 0 0 0 0 0 0 0 0 0 0 0 0 0 0 0 0 0
0 0 0 0 0 0 0 0 0 0 0 0 0 0 0 0 0 0 0 0 0 0 0 0 0 0 0 0 0 0 0 0 0 0 0 0 0 0 0 0 0 0 0
0 0 0 0 0 0 0 0 0 0 0 0 0 0 0 0 0 0 0 0 0 0 0 0 0 0 0 0 0 0 0 0 0 0 0 0 0 0 0 0 0 0 0
0 0 0 0 0 0 0 0 0 0 0 0 0 0 0 0 0 0 0 0 0 0 0 0 0 0 0 0 0 0 0 0 0 0 0 0 0 0 0 0 0 0 0
0 0 0 0 0 0 0 0 0 0 0 0 0 0 0 0 0 0 0 0 0 0 0 0 0 0 0 0 0 0 0 0 0 0 0 0 0 0 0 0 0 0 0
0 0 0 0 0 0 0 0 0 0 0 0 0 0 0 0 0 0 0 0 0 0 0 0 0 0 0 0 0 0 0 0 0 0 0 0 0 0 0 0 0 0 0
0 0 0 0 0 0 0 0 0 0 0 0 0 0 0 0 0 0 0 0 0 0 0 0 0 0 0 0 0 0 0 0 0 0 0 0 0 0 0 0 0 0 0
0 0 0 0 0 0 0 0 0 0 0 0 0 0 0 0 0 0 0 0 0 0 0 0 0 0 0 0 0 0 0 0 0 0 0 0 0 0 0 0 0 0 0
0 0 0 0 0 0 0 0 0 0 0 0 0 0 0 0 0 0 0 0 0 0 0 0 0 0 0 0 0 0 0 0 0 0 0 0 0 0 0 0 0 0 0
0 0 0 0 0 0 0 0 0 0 0 0 0 0 0 0 0 0 0 0 0 0 0 0 0 0 0 0 0 0 0 0 0 0 0 0 0 0 0 0 0 0 0
0 0 0 0 0 0 0 0 0 0 0 0 0 0 0 0 0 0 0 0 0 0 0 0 0 0 0 0 0 0 0 0 0 0 0 0 0 0 0 0 0 0 0
0 0 0 0 0 0 0 0 0 0 0 0 0 0 0 0 0 0 0 0 0 0 0 0 0 0 0 0 0 0 0 0 0 0 0 0 0 0 0 0 0 0 0
0 0 0 0 0 0 0 0 0 0 0 0 0 0 0 0 0 0 0 0 0 0 0 0 0 0 0 0 0 0 0 0 0 0 0 0 0 0 0 0 0 0 0
0 0 0 0 0 0 0 0 0 0 0 0 0 0 0 0 0 0 0 0 0 0 0 0 0 0 0 0 0 0 0 0 0 0 0 0 0 0 0 0 0 0 0
0 0 0 0 0 0 0 0 0 0 0 0 0 0 0 0 0 0 0 0 0 0 0 0 0 0 0 0 0 0 0 0 0 0 0 0 0 0 0 0 0 0 0
0 0 0 0 0 0 0 0 0 0 0 0 0 0 0 0 0 0 0 0 0 0 0 0 0 0 0 0 0 0 0 0 0 0 0 0 0 0 0 0 0 0 0
0 0 0 0 0 0 0 0 0 0 0 0 0 0 0 0 0 0 0 0 0 0 0 0 0 0 0 0 0 0 0 0 0 0 0 0 0 0 0 0 0 0 0
Wind_Speed
13 13 13 13 13 12 11 11 10 9 9 9 9 9 9 9 8 7 8 7 8 7 6 7 7 6 5 4 4 4 5 5 4 4 3 3 5 7 6 7 6 6 2
13 13 12 12 12 12 11 10 9 9 9 9 9 9 8 8 7 7 7 7 7 7 6 6 6 5 5 5 4 5 5 4 5 5 5 4 5 5 6 8 6 6 6
12 13 12 11 11 11 10 9 9 9 9 9 8 8 8 7 7 7 7 6 6 6 6 6 5 5 5 5 5 5 4 4 4 5 5 4 5 5 7 6 6 5 6
12 12 11 10 10 10 9 9 8 8 8 8 8 8 8 7 7 6 6 6 6 5 5 5 5 6 6 6 4 5 5 5 4 5 5 5 4 5 6 6 6 5 5
11 11 10 9 9 8 8 8 8 8 8 8 8 8 7 7 7 7 5 5 5 4 4 4 5 5 5 6 7 7 7 6 6 5 5 5 5 6 6 6 7 6 5
10 10 9 8 8 8 8 8 8 8 8 7 7 8 8 8 8 9 8 4 4 4 4 3 2 1 1 4 4 5 6 7 8 7 6 7 7 7 7 7 7 7 6
9 9 9 8 8 7 7 7 7 7 7 7 7 7 8 8 7 7 8 5 4 4 4 4 4 4 4 6 3 7 8 8 7 7 8 8 8 8 8 9 7 8 7
9 8 8 7 7 7 7 7 6 6 6 6 6 6 6 7 6 6 9 3 3 3 4 4 5 5 7 8 8 6 5 2 2 5 7 8 8 8 8 8 8 8 7
8 8 7 7 7 7 7 6 6 5 5 5 5 5 5 6 6 7 11 2 3 3 3 4 5 6 7 8 8 7 6 4 3 7 8 9 10 10 8 7 6 6 6
7 7 7 6 6 6 6 5 5 4 4 4 5 4 4 5 6 7 10 4 4 3 3 3 6 6 8 8 8 7 8 8 8 6 5 7 8 7 9 7 6 6 6
7 7 7 6 6 6 5 4 4 3 4 3 4 4 4 5 5 5 8 6 6 5 4 4 6 7 7 7 7 7 7 9 9 7 6 4 3 2 2 3 4 5 6
7 7 6 5 5 6 5 4 3 2 3 3 3 3 4 4 4 4 4 4 7 5 5 5 6 7 7 6 5 7 10 10 6 5 5 4 5 5 5 5 4 5 5
6 7 6 6 5 5 4 4 3 2 2 2 2 3 3 3 4 3 2 3 4 4 4 4 4 6 7 3 1 6 8 6 6 6 6 5 5 5 5 3 3 3 5
6 6 5 5 5 4 2 3 3 3 3 3 3 3 3 4 5 5 3 1 2 2 2 1 5 6 5 3 3 3 4 5 6 6 6 5 4 4 4 5 5 4 4
6 5 4 4 4 4 4 5 5 7 6 5 5 4 4 5 7 7 7 7 7 7 8 4 3 4 4 5 5 5 5 5 5 6 6 6 6 5 5 5 5 5 5
5 4 3 3 3 2 4 5 6 4 4 3 4 6 4 5 5 4 4 4 6 8 7 4 5 5 6 6 6 6 5 6 6 6 6 6 6 6 6 5 5 5 5
4 3 2 2 2 2 2 2 4 5 3 2 1 1 3 4 3 3 3 4 5 7 4 5 5 5 6 6 6 6 6 6 6 6 6 6 6 6 6 6 6 6 6
4 4 1 1 1 2 2 2 2 3 4 5 6 3 2 1 0 2 4 6 3 1 4 5 5 5 6 6 6 6 6 6 6 6 6 6 6 7 7 7 6 7 7
2 3 2 2 1 2 1 2 2 2 2 2 4 6 5 5 5 4 5 4 4 4 5 5 5 6 6 6 6 6 6 6 6 6 6 6 6 7 7 7 7 6 6
3 3 1 0 2 2 2 2 2 2 2 2 2 3 2 1 1 1 1 4 4 4 5 5 5 6 6 6 6 6 6 5 6 6 6 6 6 7 7 8 7 7 6
3 5 5 3 2 2 2 2 2 2 2 2 3 5 5 3 2 3 3 3 4 5 5 5 5 5 6 6 6 7 7 6 6 6 7 7 7 7 7 7 7 7 7
2 3 3 2 3 2 2 2 2 2 2 2 2 4 3 3 3 3 3 3 3 3 4 5 6 5 6 6 6 6 6 7 7 7 8 8 7 7 7 7 7 7 7
2 3 3 3 3 3 3 2 2 2 1 1 1 1 1 2 3 3 3 3 3 3 3 4 4 5 6 6 5 6 6 7 8 9 9 8 8 7 7 7 8 8 7
3 3 3 3 3 3 3 3 2 1 1 1 1 1 2 2 2 3 3 3 3 2 3 3 4 6 7 6 5 6 7 8 10 9 10 9 9 7 7 7 7 8 7
3 3 3 4 3 3 3 3 2 2 1 1 1 1 1 1 2 1 2 2 2 2 3 3 3 4 6 7 7 8 8 7 7 9 10 9 8 7 8 7 6 7 7
4 3 3 3 3 3 3 3 2 2 1 0 0 0 1 1 1 1 1 2 2 1 2 2 3 4 5 5 7 7 6 7 8 9 9 8 7 7 9 7 8 7 7
Wind_Direction
84 85 86 86 87 87 86 86 86 87 87 86 85 83 81 78 74 74 79 80 78 76 72 70 60 40 32 30 28 22 19 4 346 1 358 6 339 328 334 323 312 306 314
89 88 88 91 91 90 89 88 87 86 85 84 82 80 78 77 75 75 76 75 75 73 67 62 55 50 38 26 13 18 21 0 337 345 338 345 337 325 329 311 317 324 318
96 95 93 92 92 91 90 89 87 86 84 82 80 78 76 74 73 72 72 72 70 65 59 53 45 34 24 27 3 6 1 355 339 324 328 336 325 342 324 318 327 326 315
100 97 94 91 91 92 92 90 87 86 85 84 82 78 74 69 68 70 73 70 66 64 56 43 33 25 17 2 357 356 346 329 326 316 327 332 332 343 325 331 333 337 327
103 100 98 96 95 95 94 91 89 86 88 88 86 80 74 68 48 35 57 64 58 56 50 36 41 31 14 345 343 345 336 329 328 330 330 335 348 345 344 339 332 329 328
107 105 104 103 100 97 96 95 91 87 85 86 80 78 70 60 36 14 355 46 45 38 30 20 53 112 1 245 261 289 306 320 333 329 332 343 341 340 343 330 332 332 332
112 111 112 109 104 101 99 96 93 91 90 87 83 80 77 65 35 14 354 342 39 32 18 2 1 34 331 348 284 237 237 229 251 301 317 329 329 341 333 327 335 329 322
116 113 110 109 106 103 99 96 95 94 92 90 86 83 80 70 37 7 334 309 39 31 15 7 2 6 20 344 326 333 334 332 259 278 311 315 323 328 320 308 305 299 289
113 109 107 109 108 107 102 100 99 98 96 97 91 83 74 78 45 6 331 337 47 42 32 28 2 4 28 335 315 335 342 351 212 232 263 277 286 284 284 296 310 315 326
111 105 105 105 103 100 100 101 100 101 100 97 90 76 60 63 60 15 341 343 26 21 54 92 80 16 356 335 328 344 350 351 339 323 270 251 257 247 231 261 309 322 328
109 104 100 99 98 98 101 100 105 103 95 88 93 89 72 59 85 42 2 347 360 1 24 37 56 21 354 338 322 345 343 317 311 319 327 333 330 316 286 283 304 310 323
111 106 102 98 96 99 99 97 94 96 121 114 106 97 96 96 57 55 6 351 328 342 11 21 36 359 333 327 343 347 313 297 310 334 339 351 355 355 353 340 327 308 298
114 109 107 102 93 87 93 104 113 110 84 89 88 81 80 83 108 166 229 263 293 325 15 18 332 313 301 274 328 306 304 327 345 345 352 355 351 348 325 320 320 303 287
120 117 118 115 108 94 76 74 67 60 62 72 61 58 64 74 47 26 5 5 220 250 326 201 233 255 279 319 310 315 341 1 341 340 345 340 338 340 340 349 344 334 327
124 126 128 117 101 100 82 51 41 55 35 15 29 34 29 48 40 6 346 1 357 2 328 324 344 353 351 360 358 360 352 358 352 350 343 340 346 349 350 351 339 333 342
141 145 137 127 116 118 122 118 72 59 84 57 21 356 45 48 12 358 354 344 330 320 313 355 4 360 358 358 353 352 359 6 355 344 343 345 347 344 347 347 345 347 348
130 129 135 122 124 120 113 116 131 140 158 148 105 8 358 6 352 331 307 295 292 299 322 14 10 4 358 355 353 352 353 357 344 337 344 344 343 342 344 347 351 348 346
136 128 155 127 104 92 93 93 100 120 144 148 148 141 135 111 25 306 292 279 262 313 13 14 8 4 359 353 351 350 346 344 346 341 343 341 339 337 340 342 346 352 340
146 120 116 97 114 104 108 107 94 92 82 95 124 140 169 184 196 232 276 323 10 15 14 11 7 2 357 350 348 346 342 340 345 335 342 342 337 333 338 338 339 341 319
133 83 334 192 135 127 132 117 106 100 86 76 80 76 108 214 257 77 9 12 5 16 10 7 7 1 354 348 345 345 343 342 342 338 345 342 337 334 336 335 336 335 336
146 140 185 223 140 112 115 111 106 90 81 87 80 65 360 333 12 14 9 12 11 10 10 357 353 0 1 351 351 350 344 343 348 347 343 340 336 335 331 331 336 337 341
163 145 158 130 120 113 108 126 122 104 91 85 100 130 196 280 11 17 15 14 14 10 10 356 350 3 5 355 352 342 342 347 351 346 339 334 330 332 334 338 342 340 344
186 155 146 137 127 131 187 153 133 124 105 79 52 47 84 21 17 17 15 13 10 9 7 360 352 5 8 356 347 341 348 351 342 332 325 324 327 330 333 339 340 344 357
164 171 162 155 160 168 161 149 149 136 98 66 38 29 31 25 11 19 3 11 10 10 9 5 5 6 1 355 344 357 16 354 331 316 319 317 318 328 333 337 342 352 354
168 172 174 167 170 167 163 169 166 168 159 64 38 16 20 11 12 13 10 15 3 11 10 1 1 4 0 358 2 9 7 336 318 316 308 304 318 334 335 339 348 352 358
175 180 188 174 166 170 178 185 185 196 206 200 217 314 335 345 7 13 5 3 349 15 358 1 11 2 355 358 17 5 342 328 321 310 300 303 326 352 345 340 350 356 5